Vorticity
-4 15 8 3 4 -2 6 16 5 12 7 6 -2 10 3 6 -1 8 13 5 -2 6 1 6 5 6 5 5 6 6 5 6 5 5 6 6 8 7 5 5 5 4 3 2 2 2 3 4 6
4 11 2 3 20 8 6 7 8 8 9 4 11 8 2 11 3 6 4 -1 3 -6 6 3 5 7 6 4 6 7 7 7 7 8 7 7 7 7 6 6 5 5 5 5 5 5 4 4 6
1 10 11 -1 5 19 6 3 6 7 3 3 5 5 9 1 7 8 6 3 3 8 4 4 5 7 5 4 7 8 9 8 9 8 8 9 8 7 7 6 6 6 4 4 4 3 3 5 3
4 11 9 -41 37 -5 11 7 2 3 4 2 5 7 7 12 11 9 5 2 15 -4 4 5 7 6 5 6 8 9 8 7 8 7 6 7 8 8 6 7 7 6 7 8 8 8 8 10 12
12 10 0 3 1 8 7 4 4 6 2 5 4 7 6 12 6 6 10 7 4 3 6 7 6 6 6 7 10 10 7 8 6 6 5 5 7 8 7 8 8 8 7 9 11 12 10 8 11
17 -25 19 -4 8 4 8 9 -0 3 5 8 6 7 5 5 8 10 6 6 6 6 7 7 6 7 7 10 10 8 7 8 5 4 6 8 8 7 9 11 11 10 9 8 6 5 4 3 4
12 -4 -4 11 16 11 6 2 1 4 4 6 8 10 4 6 7 7 5 5 6 8 9 6 6 8 8 13 7 9 9 7 7 11 11 10 11 9 6 6 5 3 3 3 4 3 4 6 6
8 2 -2 11 18 14 9 7 6 6 7 8 6 4 9 2 6 5 6 7 7 8 8 6 10 9 11 8 9 8 9 7 8 8 8 6 4 4 4 4 2 3 3 3 4 5 5 6 6
8 12 -3 11 8 18 12 11 7 6 7 6 5 2 13 8 5 6 7 8 6 7 7 7 9 9 9 8 6 9 7 6 6 5 4 -5 4 3 3 2 5 4 4 5 6 6 6 5 5
6 -25 6 0 14 11 11 9 9 9 8 7 7 7 5 10 6 4 7 8 5 6 6 6 8 10 7 7 10 7 6 5 5 4 6 25 3 4 3 4 4 5 6 6 6 7 5 3 9
-3 -3 -29 8 3 7 20 14 9 11 9 6 6 12 6 9 3 1 6 9 8 6 5 5 8 8 6 7 5 4 4 5 3 2 -10 16 0 4 5 4 3 3 4 4 -3 -5 6 6 5
0 5 4 16 2 8 9 2 13 6 8 -1 6 4 10 4 3 -2 -0 5 9 7 5 6 8 9 8 7 8 2 3 11 4 -3 4 4 4 3 3 3 4 5 5 6 7 6 4 4 5
1 5 -4 1 4 3 1 8 3 11 8 8 10 8 2 8 7 7 4 1 14 8 6 7 7 6 4 8 -2 7 0 5 2 4 4 5 4 4 4 4 3 4 5 4 4 5 4 4 6
3 4 8 5 4 5 8 6 10 9 11 9 12 11 10 4 4 5 3 0 7 8 7 8 7 6 4 8 3 7 4 3 5 5 4 4 4 4 4 2 4 6 7 8 7 6 6 6 6
-1 5 9 6 4 6 5 5 7 7 7 7 9 11 12 13 8 4 9 3 2 8 7 8 6 5 7 7 6 4 5 4 4 4 4 5 5 4 3 2 4 9 10 8 8 9 9 9 8
7 4 4 4 2 2 6 -1 5 -1 2 5 12 8 10 13 11 9 7 12 5 8 7 6 6 5 6 8 7 2 7 5 5 7 6 6 6 4 3 4 9 10 8 8 7 7 7 5 6
4 6 4 -1 -4 3 6 1 20 7 4 3 7 9 8 11 12 12 13 16 7 9 8 6 6 5 5 6 4 4 4 4 6 7 5 6 5 2 6 8 6 9 9 7 8 8 9 8 4
10 10 8 1 8 0 3 3 3 7 6 2 4 11 10 15 9 13 14 9 10 6 7 8 6 6 5 8 6 4 4 5 7 6 4 4 6 7 7 7 6 6 6 7 7 6 16 13 6
14 5 -1 14 -1 26 -8 8 -3 -9 9 0 2 5 11 17 10 8 9 10 7 9 6 6 5 8 5 5 5 5 5 5 5 7 5 6 7 7 3 10 5 5 7 8 7 13 12 19 19
7 7 7 4 7 1 10 4 3 4 0 6 1 3 9 17 11 6 9 10 7 9 9 8 6 5 8 5 5 6 7 6 5 6 6 9 8 6 5 4 9 7 9 6 7 9 6 12 16
6 8 7 8 5 17 -4 6 6 5 -0 17 -3 4 6 18 15 7 10 9 6 9 10 7 8 6 7 8 11 8 6 4 6 9 9 6 3 1 5 2 8 9 11 6 5 9 5 4 6
11 3 8 4 6 7 21 -4 5 -7 6 11 -1 0 8 12 11 8 9 10 8 6 3 6 8 6 9 10 9 5 5 6 6 5 3 4 4 3 3 4 5 8 8 6 6 9 6 4 3
21 10 6 7 -11 2 3 7 4 10 11 4 2 0 14 11 9 9 10 11 6 9 6 10 10 7 5 4 4 6 5 6 7 4 4 4 3 3 2 3 3 7 8 8 7 6 6 9 8
11 15 8 5 2 2 4 6 7 1 2 14 13 2 7 10 7 9 9 11 7 8 6 7 10 7 4 3 4 5 6 7 8 7 4 3 2 3 2 3 5 5 8 6 7 6 5 9 7
5 12 13 7 1 7 11 7 15 17 4 5 15 7 4 5 13 10 7 11 9 14 9 8 6 6 5 5 6 6 7 7 5 5 4 5 5 4 3 3 3 4 9 8 7 7 6 9 5
9 7 12 13 8 8 16 3 21 6 3 13 9 8 3 1 16 14 10 11 6 7 7 6 5 6 6 6 6 7 7 6 5 4 5 5 6 6 5 3 3 3 2 15 9 5 6 7 6
4 5 16 -6 41 -1 21 5 22 5 24 3 3 13 -4 -4 12 17 10 11 8 6 5 5 7 7 8 6 6 5 3 3 5 5 5 4 4 5 5 6 5 4 4 3 13 7 6 5 4
4 9 8 -5 -4 13 6 10 10 13 30 31 13 10 3 -9 3 22 9 7 8 7 8 6 5 6 8 10 5 3 4 5 5 8 6 6 6 5 4 5 5 5 5 5 9 12 3 6 5
4 6 6 7 4 -3 -3 13 13 18 10 12 19 16 3 -2 -4 22 15 10 8 7 7 7 7 8 4 2 2 5 9 11 13 14 10 8 6 7 5 5 4 5 6 7 3 14 9 9 5
9 6 9 5 8 3 4 -5 8 -0 32 13 15 9 13 1 10 4 17 10 7 7 8 7 6 4 3 3 2 10 7 12 15 17 17 19 16 13 10 7 5 5 6 8 10 6 16 6 4
Height
5883 5883 5884 5884 5887 5885 5885 5885 5885 5885 5886 5886 5887 5888 5887 5887 5886 5889 5887 5886 5889 5890 5888 5892 5892 5892 5893 5895 5896 5896 5896 5895 5896 5896 5897 5896 5897 5896 5897 5897 5898 5898 5899 5900 5899 5899 5899 5899 5900
5884 5885 5886 5886 5882 5885 5886 5886 5887 5887 5887 5888 5888 5888 5888 5888 5888 5889 5889 5889 5890 5891 5892 5893 5894 5894 5895 5897 5897 5897 5897 5897 5898 5898 5899 5898 5898 5899 5899 5900 5900 5900 5900 5900 5900 5900 5900 5901 5901
5884 5887 5889 5889 5888 5881 5888 5888 5889 5889 5890 5889 5890 5891 5889 5889 5890 5892 5892 5892 5893 5893 5894 5895 5896 5896 5897 5898 5899 5899 5899 5900 5900 5901 5901 5900 5900 5901 5902 5901 5902 5902 5902 5902 5902 5902 5902 5902 5901
5886 5889 5889 5890 5885 5887 5888 5890 5890 5891 5891 5892 5892 5891 5892 5891 5892 5893 5895 5895 5896 5896 5896 5897 5898 5898 5899 5900 5900 5901 5902 5902 5903 5902 5902 5903 5903 5903 5903 5904 5904 5903 5904 5903 5903 5904 5904 5903 5902
5888 5890 5888 5883 5889 5890 5890 5891 5892 5893 5892 5893 5893 5893 5893 5893 5894 5895 5896 5897 5898 5899 5898 5898 5899 5900 5901 5901 5902 5903 5904 5904 5905 5904 5905 5905 5905 5905 5905 5906 5906 5906 5906 5906 5905 5905 5905 5904 5903
5889 5888 5886 5888 5891 5892 5891 5892 5894 5894 5894 5894 5895 5895 5895 5896 5896 5897 5898 5899 5900 5900 5901 5901 5901 5902 5902 5903 5904 5905 5906 5907 5906 5906 5907 5908 5908 5908 5908 5908 5908 5908 5909 5909 5909 5908 5907 5906 5906
5890 5885 5883 5893 5893 5892 5892 5893 5893 5894 5894 5894 5895 5895 5896 5896 5897 5897 5898 5899 5900 5901 5902 5902 5903 5904 5904 5905 5906 5907 5908 5909 5909 5909 5909 5910 5911 5911 5911 5911 5912 5912 5912 5911 5912 5911 5910 5909 5908
5890 5888 5892 5894 5891 5892 5893 5893 5894 5894 5894 5894 5894 5894 5896 5897 5897 5899 5899 5899 5900 5901 5901 5903 5906 5906 5907 5908 5909 5909 5910 5911 5911 5911 5912 5913 5914 5914 5914 5914 5915 5915 5915 5914 5914 5914 5913 5912 5910
5889 5890 5893 5897 5895 5894 5893 5893 5893 5893 5894 5894 5894 5895 5897 5896 5898 5899 5899 5900 5900 5901 5902 5904 5907 5907 5909 5909 5911 5911 5912 5913 5914 5914 5917 5920 5918 5917 5917 5917 5918 5918 5918 5917 5917 5916 5915 5914 5913
5889 5883 5890 5896 5894 5894 5894 5892 5893 5893 5894 5894 5894 5895 5896 5897 5898 5899 5900 5900 5901 5902 5903 5905 5908 5909 5911 5911 5912 5913 5914 5915 5916 5917 5921 5921 5922 5919 5920 5919 5920 5921 5920 5920 5919 5920 5918 5917 5917
5887 5885 5885 5892 5891 5894 5892 5891 5893 5892 5894 5894 5894 5895 5896 5898 5898 5899 5900 5901 5902 5903 5904 5906 5908 5911 5912 5912 5914 5915 5917 5918 5918 5920 5921 5923 5922 5923 5923 5923 5922 5922 5921 5922 5908 5916 5921 5920 5918
5887 5888 5887 5890 5890 5893 5894 5893 5891 5893 5892 5893 5893 5894 5897 5897 5898 5899 5900 5901 5902 5904 5905 5907 5909 5912 5914 5915 5916 5917 5919 5920 5921 5922 5924 5926 5926 5927 5929 5927 5924 5923 5923 5924 5915 5919 5923 5922 5921
5885 5887 5888 5889 5890 5890 5892 5894 5898 5892 5892 5892 5893 5894 5896 5898 5899 5900 5901 5902 5902 5904 5906 5908 5910 5912 5915 5916 5918 5919 5921 5923 5924 5925 5926 5927 5929 5929 5928 5927 5926 5926 5926 5925 5925 5924 5923 5922 5922
5882 5884 5886 5889 5890 5891 5892 5893 5892 5892 5893 5892 5893 5893 5894 5895 5897 5899 5900 5901 5902 5904 5906 5908 5910 5913 5916 5918 5919 5921 5923 5925 5926 5927 5928 5929 5930 5930 5931 5929 5929 5928 5928 5926 5926 5924 5924 5924 5924
5877 5881 5884 5887 5889 5891 5892 5894 5893 5894 5893 5892 5893 5893 5893 5894 5895 5897 5899 5900 5902 5903 5906 5909 5910 5914 5917 5919 5921 5923 5925 5926 5929 5929 5929 5931 5932 5933 5932 5932 5930 5930 5928 5927 5926 5926 5926 5925 5924
5874 5878 5881 5885 5887 5891 5892 5896 5894 5893 5892 5891 5892 5892 5893 5893 5893 5895 5898 5900 5902 5904 5906 5909 5911 5914 5917 5919 5922 5924 5926 5927 5929 5930 5930 5932 5934 5935 5935 5933 5931 5931 5929 5928 5927 5927 5926 5925 5924
5869 5874 5879 5884 5886 5889 5891 5895 5893 5892 5891 5891 5891 5891 5891 5891 5892 5893 5895 5898 5901 5903 5907 5909 5912 5915 5917 5920 5923 5926 5927 5928 5930 5931 5932 5933 5935 5935 5935 5934 5933 5933 5932 5930 5928 5927 5926 5925 5923
5865 5871 5878 5882 5887 5887 5889 5893 5890 5891 5890 5890 5890 5891 5891 5891 5891 5892 5894 5895 5899 5903 5906 5909 5912 5915 5918 5921 5923 5925 5927 5929 5930 5932 5933 5935 5936 5936 5935 5934 5933 5932 5931 5931 5929 5927 5926 5924 5923
5862 5869 5874 5883 5886 5884 5887 5891 5892 5891 5889 5888 5889 5890 5890 5890 5891 5892 5893 5896 5898 5902 5906 5908 5912 5915 5917 5919 5922 5924 5926 5928 5930 5932 5934 5935 5936 5936 5936 5935 5934 5933 5932 5932 5929 5929 5927 5924 5922
5856 5861 5870 5877 5882 5879 5884 5887 5890 5891 5887 5887 5888 5889 5889 5889 5890 5891 5893 5895 5897 5901 5904 5907 5910 5913 5915 5918 5921 5924 5926 5928 5930 5931 5933 5935 5936 5936 5936 5936 5936 5934 5934 5933 5931 5930 5928 5927 5924
5848 5854 5863 5871 5875 5877 5878 5880 5883 5887 5887 5884 5885 5887 5887 5889 5890 5892 5893 5894 5896 5900 5903 5905 5908 5911 5914 5917 5920 5923 5925 5927 5928 5930 5932 5934 5936 5936 5936 5936 5936 5935 5934 5933 5932 5931 5930 5930 5928
5843 5850 5854 5859 5865 5870 5872 5874 5876 5880 5882 5880 5882 5884 5886 5886 5888 5890 5893 5895 5895 5897 5900 5904 5906 5909 5912 5916 5919 5922 5923 5926 5929 5931 5932 5933 5935 5936 5936 5936 5936 5935 5934 5934 5932 5931 5930 5930 5930
5842 5843 5847 5851 5854 5861 5864 5870 5876 5877 5878 5878 5879 5882 5883 5884 5886 5888 5890 5892 5894 5895 5898 5902 5906 5909 5912 5915 5917 5921 5923 5925 5927 5929 5931 5932 5934 5935 5935 5935 5935 5935 5934 5935 5935 5933 5932 5931 5930
5832 5835 5840 5844 5846 5843 5852 5860 5865 5873 5877 5878 5876 5879 5879 5881 5884 5885 5887 5889 5894 5896 5898 5902 5906 5909 5911 5913 5916 5919 5921 5923 5925 5927 5929 5931 5934 5935 5935 5935 5935 5935 5933 5933 5934 5934 5933 5932 5931
5822 5828 5832 5835 5836 5836 5848 5852 5857 5866 5870 5873 5874 5875 5877 5878 5880 5882 5883 5889 5892 5895 5898 5901 5904 5907 5909 5911 5914 5917 5920 5922 5924 5926 5928 5930 5932 5933 5934 5935 5935 5935 5935 5934 5934 5934 5934 5933 5933
5817 5822 5826 5828 5833 5839 5843 5839 5849 5857 5861 5866 5870 5873 5874 5875 5878 5880 5882 5886 5890 5893 5895 5898 5902 5905 5908 5910 5913 5915 5918 5921 5923 5924 5926 5928 5930 5931 5932 5933 5933 5933 5934 5934 5934 5934 5934 5933 5932
5810 5812 5827 5832 5834 5839 5841 5841 5845 5851 5852 5856 5862 5866 5870 5871 5875 5878 5879 5883 5887 5890 5894 5896 5900 5903 5907 5910 5912 5914 5916 5918 5920 5921 5923 5925 5927 5928 5928 5930 5931 5932 5932 5932 5933 5934 5933 5932 5931
5798 5816 5813 5817 5827 5833 5838 5841 5841 5842 5845 5849 5854 5859 5866 5870 5871 5875 5877 5880 5884 5888 5891 5894 5898 5902 5905 5907 5909 5911 5914 5916 5918 5919 5920 5921 5923 5925 5926 5927 5928 5929 5930 5930 5931 5932 5932 5931 5930
5792 5795 5803 5815 5820 5828 5834 5839 5838 5840 5839 5842 5847 5854 5861 5865 5868 5871 5875 5877 5880 5884 5889 5892 5895 5899 5902 5904 5907 5909 5910 5911 5912 5914 5915 5916 5918 5921 5922 5923 5924 5925 5926 5927 5928 5928 5929 5929 5929
5786 5791 5799 5805 5813 5820 5832 5836 5831 5834 5834 5838 5843 5848 5855 5862 5864 5868 5870 5872 5876 5881 5886 5890 5893 5896 5899 5902 5904 5906 5907 5908 5909 5910 5911 5912 5914 5916 5917 5919 5920 5920 5921 5922 5924 5924 5926 5927 5926